Regional Weather Roundup
Issued by NWS

Home | Current Version | Previous Version | Text Only | Print | Product List | Glossary Off
Versions: 1 2 3 4 5 6 7 8 9 10 11 12 13 14 15 16 17 18 19 20 21 22 23 24 25 26 27

000
ASUS45 KBOU 151407
RWRCO

WEATHER ROUNDUP FOR COLORADO
NATIONAL WEATHER SERVICE DENVER/BOULDER CO
700 AM MST SUN JAN 15 2017

NOTE: "FAIR" INDICATES FEW OR NO CLOUDS BELOW 12000 FEET WITH NO
SIGNIFICANT WEATHER AND/OR OBSTRUCTIONS TO VISIBILITY.

COZ001>005-013-030-031-151500-
...NORTHWEST COLORADO...

CITY           SKY/WX    TMP DP  RH WIND       PRES   REMARKS
CRAIG          CLOUDY    25  22  88 NE5       30.09F WCI  19
HAYDEN         CLOUDY    25  21  86 CALM      30.07F
MEEKER         CLOUDY    29  25  85 NE9       30.05F WCI  20
MOUNT WERNER   NOT AVBL
STEAMBOAT SPGS CLOUDY    21  19  95 NW5       30.07F WCI  14
WALDEN           N/A    N/A N/A N/A CALM      30.10F VSB 1/4
$$

COZ006>008-011-151500-
...WEST CENTRAL VALLEYS...

CITY           SKY/WX    TMP DP  RH WIND       PRES   REMARKS
GRAND JUNCTION FAIR      32  32 100 NE3       30.00F
MONTROSE       FOG       32  32 100 NE3       30.03S VSB 1
EAGLE          CLOUDY    28  25  86 E5        30.09F WCI  23
RIFLE          CLOUDY    31  29  92 SE3       30.04F
DELTA          CLOUDY    37  37  97 CALM      30.02S
NUCLA          CLOUDY    34  32  93 SE5       30.02S WCI  30
$$

COZ017>023-064>068-151500-
...SOUTHWEST COLORADO...

CITY           SKY/WX    TMP DP  RH WIND       PRES   REMARKS
DURANGO        CLOUDY    33  31  92 E10       29.93F WCI  25
CORTEZ         CLOUDY    39  37  92 CALM      29.94F
PAGOSA SPRINGS MOCLDY    34  34 100 SW3       29.97F
TELLURIDE      CLOUDY    33  28  81 CALM      29.99S
WOLF CREEK PAS CLOUDY    21  21 100 N8        30.09F WCI  12
$$

COZ009-010-012-014-032>034-037-058>063-151500-
...CENTRAL COLORADO...

CITY           SKY/WX    TMP DP  RH WIND       PRES   REMARKS
ASPEN          CLOUDY    24  24 100 CALM      30.02F
BUENA VISTA    MOCLDY    28  23  80 CALM      30.05S
COPPER MTN     NOT AVBL
BERTHOUD PASS  NOT AVBL
COTTONWOOD PAS MOCLDY    30  27  86 SE5       30.06S WCI  25
GUNNISON       CLOUDY    16  12  86 SE3       30.06F FOG
KREMMLING      CLOUDY   N/A N/A N/A SE5       30.12S FOG
LEADVILLE      CLOUDY    22  19  89 E3        30.05F
MONARCH PASS   FOG       21  19  93 NE17      30.17F VSB<1/4 WCI   7
SALIDA         CLOUDY    32  31  93 N3        30.14S
SUNLIGHT       FOG       23  21  93 E5        30.08F VSB 1   WCI  17
WILKERSON PASS CLOUDY    27  23  86 SE5       30.11F WCI  21
$$

COZ069>075-151500-
...SAN LUIS VALLEY/SANGRE DE CRISTO MOUNTAINS...

CITY           SKY/WX    TMP DP  RH WIND       PRES   REMARKS
ALAMOSA        CLOUDY    26  26 100 CALM      30.01F
LA VETA PASS   NOT AVBL
SAGUACHE       CLOUDY    27  27 100 E6        30.02F WCI  20
$$

COZ035-036-038>040-151500-
...NORTHERN COLORADO FRONT RANGE...

CITY           SKY/WX    TMP DP  RH WIND       PRES   REMARKS
DENVER INTL AP CLOUDY    28  24  85 SW7       30.10F FOG     WCI  21
DMNS CITY PARK   N/A     26  24  91 SW2       30.11S
AURORA         CLOUDY    27  27  99 SW5       30.10F WCI  22
FRONT RANGE AP CLOUDY    30  28  93 SW6       30.10  FOG     WCI  24
ERIE MUNI ARPT FAIR      24  23  96 CALM      30.12S FOG
BOULDER MUN AP FAIR      28  27  93 SW3       30.11S
CENTENNIAL     CLOUDY    27  24  89 SW3       30.09F FOG
BROOMFIELD     CLOUDY    27  25  93 CALM      30.10F FOG
FORT COLLINS   FAIR      25  21  86 CALM      30.12S
LONGMONT       FAIR      25  22  89 CALM      30.13F
$$

COZ041-046-047-076>085-087-088-151500-
...PIKES PEAK/PALMER DIVIDE AND SOUTHERN FOOTHILLS...

CITY           SKY/WX    TMP DP  RH WIND       PRES   REMARKS
COLO. SPRINGS  CLOUDY    31  23  72 NW5       30.07F WCI  26
A. F. ACADEMY  FAIR      28  24  84 N7        30.06F WCI  21
SCHRIEVER AFB  NOT AVBL
ELLICOTT       LGT SNOW N/A N/A N/A CALM      30.06F
FALCON         CLOUDY    31  25  77 CALM      30.07F
FORT CARSON    CLOUDY    30  23  74 NW2       30.07F
LIMON          MIX PCPN  30  27  88 N3        30.09F
MONUMENT HILL  CLOUDY    27  25  93 W3        30.09S FOG
TRINIDAD       CLOUDY    31  28  89 CALM      30.07F FOG
$$

COZ042>045-048>051-090-091-151500-
...NORTHEAST COLORADO...

CITY           SKY/WX    TMP DP  RH WIND       PRES   REMARKS
GREELEY ARPT   CLOUDY    23  22  96 CALM      30.13F FOG
AKRON          CLOUDY    29  22  75 CALM      30.10F
BURLINGTON     CLOUDY    32  27  81 N6        30.11F WCI  26
WRAY           NOT AVBL
STERLING       CLOUDY    21  21 100 CALM      30.13S
HOLYOKE        MOCLDY    27  21  80 CALM      30.15F
FORT MORGAN    CLOUDY    25  22  89 CALM      30.13S
$$

COZ086-089-092>099-151500-
...SOUTHEAST COLORADO...

CITY           SKY/WX    TMP DP  RH WIND       PRES   REMARKS
PUEBLO         LGT SNOW  28  26  92 S6        30.11R VSB 1   WCI  22
LA JUNTA       SNOW      31  28  89 N6        30.12F VSB 1/2 WCI  25
LAMAR          FRZ RAIN  31  29  92 S5        30.13R FOG     WCI  26
SPRINGFIELD      N/A     29  29 100 E6        30.07F WCI  23
$$




USA.gov is the U.S. government's official web portal to all federal, state and local government web resources and services.